Year,Month,Day,Hour,Minute,Value (Times are PST for temperature in C)
2017,03,26,00,00,4.10
2017,03,26,00,01,4.10
2017,03,26,00,02,4.10
2017,03,26,00,03,4.10
2017,03,26,00,04,4.10
2017,03,26,00,05,4.10
2017,03,26,00,06,4.10
2017,03,26,00,07,4.00
2017,03,26,00,08,4.00
2017,03,26,00,09,4.00
2017,03,26,00,10,4.00
2017,03,26,00,11,4.00
2017,03,26,00,12,4.00
2017,03,26,00,13,4.00
2017,03,26,00,14,4.00
2017,03,26,00,15,4.00
2017,03,26,00,16,4.00
2017,03,26,00,17,4.00
2017,03,26,00,18,4.00
2017,03,26,00,19,4.00
2017,03,26,00,20,4.00
2017,03,26,00,21,4.00
2017,03,26,00,22,3.90
2017,03,26,00,23,3.90
2017,03,26,00,24,3.90
2017,03,26,00,25,3.90
2017,03,26,00,26,3.90
2017,03,26,00,27,3.90
2017,03,26,00,28,3.90
2017,03,26,00,29,3.90
2017,03,26,00,30,3.90
2017,03,26,00,31,3.90
2017,03,26,00,32,3.90
2017,03,26,00,33,3.90
2017,03,26,00,34,3.90
2017,03,26,00,35,3.90
2017,03,26,00,36,3.90
2017,03,26,00,37,3.90
2017,03,26,00,38,3.90
2017,03,26,00,39,3.90
2017,03,26,00,40,3.90
2017,03,26,00,41,3.90
2017,03,26,00,42,3.90
2017,03,26,00,43,3.90
2017,03,26,00,44,3.90
2017,03,26,00,45,3.90
2017,03,26,00,46,3.90
2017,03,26,00,47,3.90
2017,03,26,00,48,3.90
2017,03,26,00,49,3.90
2017,03,26,00,50,3.90
2017,03,26,00,51,3.90
2017,03,26,00,52,3.90
2017,03,26,00,53,3.90
2017,03,26,00,54,3.90
2017,03,26,00,55,3.90
2017,03,26,00,56,3.90
2017,03,26,00,57,3.90
2017,03,26,00,58,3.90
2017,03,26,00,59,3.90
2017,03,26,01,00,3.90
2017,03,26,01,01,3.90
2017,03,26,01,02,3.90
2017,03,26,01,03,3.90
2017,03,26,01,04,3.90
2017,03,26,01,05,3.90
2017,03,26,01,06,3.90
2017,03,26,01,07,3.90
2017,03,26,01,08,3.90
2017,03,26,01,09,4.00
2017,03,26,01,10,3.90
2017,03,26,01,11,3.90
2017,03,26,01,12,3.90
2017,03,26,01,13,3.90
2017,03,26,01,14,4.00
2017,03,26,01,15,4.00
2017,03,26,01,16,4.00
2017,03,26,01,17,4.00
2017,03,26,01,18,4.00
2017,03,26,01,19,4.00
2017,03,26,01,20,4.00
2017,03,26,01,21,4.00
2017,03,26,01,22,4.00
2017,03,26,01,23,4.00
2017,03,26,01,24,4.00
2017,03,26,01,25,4.00
2017,03,26,01,26,4.00
2017,03,26,01,27,4.00
2017,03,26,01,28,4.00
2017,03,26,01,29,4.00
2017,03,26,01,30,4.00
2017,03,26,01,31,4.00
2017,03,26,01,32,4.00
2017,03,26,01,33,4.00
2017,03,26,01,34,4.00
2017,03,26,01,35,4.00
2017,03,26,01,36,4.00
2017,03,26,01,37,4.00
2017,03,26,01,38,4.00
2017,03,26,01,39,4.00
2017,03,26,01,40,4.00
2017,03,26,01,41,4.00
2017,03,26,01,42,4.00
2017,03,26,01,43,4.00
2017,03,26,01,44,4.00
2017,03,26,01,45,3.90
2017,03,26,01,46,3.90
2017,03,26,01,47,3.90
2017,03,26,01,48,3.90
2017,03,26,01,49,3.90
2017,03,26,01,50,3.90
2017,03,26,01,51,3.90
2017,03,26,01,52,3.90
2017,03,26,01,53,3.90
2017,03,26,01,54,3.90
2017,03,26,01,55,3.90
2017,03,26,01,56,3.90
2017,03,26,01,57,3.90
2017,03,26,01,58,3.90
2017,03,26,01,59,3.90
2017,03,26,02,00,3.90
2017,03,26,02,01,3.90
2017,03,26,02,02,3.90
2017,03,26,02,03,3.90
2017,03,26,02,04,3.90
2017,03,26,02,05,3.90
2017,03,26,02,06,3.90
2017,03,26,02,07,3.90
2017,03,26,02,08,3.90
2017,03,26,02,09,3.90
2017,03,26,02,10,3.90
2017,03,26,02,11,3.90
2017,03,26,02,12,3.90
2017,03,26,02,13,3.90
2017,03,26,02,14,3.90
2017,03,26,02,15,3.90
2017,03,26,02,16,3.90
2017,03,26,02,17,3.90
2017,03,26,02,18,3.90
2017,03,26,02,19,3.90
2017,03,26,02,20,4.00
2017,03,26,02,21,4.00
2017,03,26,02,22,4.00
2017,03,26,02,23,4.00
2017,03,26,02,24,4.00
2017,03,26,02,25,4.00
2017,03,26,02,26,4.00
2017,03,26,02,27,4.00
2017,03,26,02,28,4.00
2017,03,26,02,29,4.00
2017,03,26,02,30,4.00
2017,03,26,02,31,4.00
2017,03,26,02,32,4.00
2017,03,26,02,33,4.00
2017,03,26,02,34,3.90
2017,03,26,02,35,4.00
2017,03,26,02,36,4.00
2017,03,26,02,37,4.00
2017,03,26,02,38,4.00
2017,03,26,02,39,4.00
2017,03,26,02,40,4.00
2017,03,26,02,41,4.00
2017,03,26,02,42,4.00
2017,03,26,02,43,4.00
2017,03,26,02,44,4.00
2017,03,26,02,45,4.00
2017,03,26,02,46,4.00
2017,03,26,02,47,4.00
2017,03,26,02,48,4.00
2017,03,26,02,49,4.00
2017,03,26,02,50,4.00
2017,03,26,02,51,4.00
2017,03,26,02,52,4.00
2017,03,26,02,53,4.00
2017,03,26,02,54,3.90
2017,03,26,02,55,3.90
2017,03,26,02,56,3.90
2017,03,26,02,57,3.90
2017,03,26,02,58,3.90
2017,03,26,02,59,3.90
2017,03,26,03,00,3.90
2017,03,26,03,01,3.90
2017,03,26,03,02,3.90
2017,03,26,03,03,3.90
2017,03,26,03,04,3.90
2017,03,26,03,05,3.90
2017,03,26,03,06,3.90
2017,03,26,03,07,3.90
2017,03,26,03,08,3.90
2017,03,26,03,09,3.90
2017,03,26,03,10,3.90
2017,03,26,03,11,3.90
2017,03,26,03,12,3.90
2017,03,26,03,13,3.90
2017,03,26,03,14,3.90
2017,03,26,03,15,3.90
2017,03,26,03,16,3.90
2017,03,26,03,17,3.90
2017,03,26,03,18,3.80
2017,03,26,03,19,3.80
2017,03,26,03,20,3.80
2017,03,26,03,21,3.80
2017,03,26,03,22,3.80
2017,03,26,03,23,3.80
2017,03,26,03,24,3.80
2017,03,26,03,25,3.80
2017,03,26,03,26,3.80
2017,03,26,03,27,3.80
2017,03,26,03,28,3.80
2017,03,26,03,29,3.80
2017,03,26,03,30,3.80
2017,03,26,03,31,3.80
2017,03,26,03,32,3.80
2017,03,26,03,33,3.80
2017,03,26,03,34,3.80
2017,03,26,03,35,3.80
2017,03,26,03,36,3.80
2017,03,26,03,37,3.80
2017,03,26,03,38,3.80
2017,03,26,03,39,3.80
2017,03,26,03,40,3.80
2017,03,26,03,41,3.90
2017,03,26,03,42,3.80
2017,03,26,03,43,3.90
2017,03,26,03,44,3.90
2017,03,26,03,45,3.90
2017,03,26,03,46,3.90
2017,03,26,03,47,3.90
2017,03,26,03,48,3.90
2017,03,26,03,49,3.90
2017,03,26,03,50,3.90
2017,03,26,03,51,3.90
2017,03,26,03,52,3.90
2017,03,26,03,53,3.90
2017,03,26,03,54,3.90
2017,03,26,03,55,3.90
2017,03,26,03,56,3.90
2017,03,26,03,57,3.90
2017,03,26,03,58,3.90
2017,03,26,03,59,3.90
2017,03,26,04,00,3.90
2017,03,26,04,01,3.90
2017,03,26,04,02,3.90
2017,03,26,04,03,3.90
2017,03,26,04,04,3.90
2017,03,26,04,05,3.90
2017,03,26,04,06,3.90
2017,03,26,04,07,3.90
2017,03,26,04,08,3.90
2017,03,26,04,09,3.90
2017,03,26,04,10,3.90
2017,03,26,04,11,3.90
2017,03,26,04,12,3.90
2017,03,26,04,13,3.90
2017,03,26,04,14,3.90
2017,03,26,04,15,3.90
2017,03,26,04,16,3.90
2017,03,26,04,17,3.90
2017,03,26,04,18,3.90
2017,03,26,04,19,3.90
2017,03,26,04,20,3.90
2017,03,26,04,21,3.90
2017,03,26,04,22,3.90
2017,03,26,04,23,3.90
2017,03,26,04,24,3.90
2017,03,26,04,25,3.90
2017,03,26,04,26,3.90
2017,03,26,04,27,3.90
2017,03,26,04,28,3.90
2017,03,26,04,29,3.90
2017,03,26,04,30,3.90
2017,03,26,04,31,3.90
2017,03,26,04,32,3.90
2017,03,26,04,33,3.90
2017,03,26,04,34,3.90
2017,03,26,04,35,3.90
2017,03,26,04,36,3.90
2017,03,26,04,37,3.90
2017,03,26,04,38,3.90
2017,03,26,04,39,3.90
2017,03,26,04,40,3.90
2017,03,26,04,41,3.90
2017,03,26,04,42,3.90
2017,03,26,04,43,3.90
2017,03,26,04,44,3.90
2017,03,26,04,45,4.00
2017,03,26,04,46,3.90
2017,03,26,04,47,4.00
2017,03,26,04,48,4.00
2017,03,26,04,49,4.00
2017,03,26,04,50,4.00
2017,03,26,04,51,4.00
2017,03,26,04,52,4.00
2017,03,26,04,53,4.00
2017,03,26,04,54,4.00
2017,03,26,04,55,4.00
2017,03,26,04,56,4.00
2017,03,26,04,57,4.00
2017,03,26,04,58,4.00
2017,03,26,04,59,4.00
2017,03,26,05,00,4.00
2017,03,26,05,01,4.00
2017,03,26,05,02,4.00
2017,03,26,05,03,4.00
2017,03,26,05,04,4.00
2017,03,26,05,05,4.00
2017,03,26,05,06,4.00
2017,03,26,05,07,4.00
2017,03,26,05,08,4.00
2017,03,26,05,09,4.00
2017,03,26,05,10,4.00
2017,03,26,05,11,4.00
2017,03,26,05,12,4.00
2017,03,26,05,13,4.10
2017,03,26,05,14,4.10
2017,03,26,05,15,4.10
2017,03,26,05,16,4.10
2017,03,26,05,17,4.10
2017,03,26,05,18,4.10
2017,03,26,05,19,4.10
2017,03,26,05,20,4.10
2017,03,26,05,21,4.10
2017,03,26,05,22,4.10
2017,03,26,05,23,4.10
2017,03,26,05,24,4.10
2017,03,26,05,25,4.10
2017,03,26,05,26,4.10
2017,03,26,05,27,4.10
2017,03,26,05,28,4.10
2017,03,26,05,29,4.10
2017,03,26,05,30,4.10
2017,03,26,05,31,4.10
2017,03,26,05,32,4.10
2017,03,26,05,33,4.00
2017,03,26,05,34,4.00
2017,03,26,05,35,4.00
2017,03,26,05,36,4.00
2017,03,26,05,37,4.00
2017,03,26,05,38,4.00
2017,03,26,05,39,4.00
2017,03,26,05,40,4.00
2017,03,26,05,41,4.00
2017,03,26,05,42,4.00
2017,03,26,05,43,4.10
2017,03,26,05,44,4.10
2017,03,26,05,45,4.10
2017,03,26,05,46,4.10
2017,03,26,05,47,4.10
2017,03,26,05,48,4.10
2017,03,26,05,49,4.10
2017,03,26,05,50,4.10
2017,03,26,05,51,4.10
2017,03,26,05,52,4.10
2017,03,26,05,53,4.10
2017,03,26,05,54,4.10
2017,03,26,05,55,4.10
2017,03,26,05,56,4.10
2017,03,26,05,57,4.10
2017,03,26,05,58,4.10
2017,03,26,05,59,4.10
2017,03,26,06,00,4.10
2017,03,26,06,01,4.10
2017,03,26,06,02,4.10
2017,03,26,06,03,4.10
2017,03,26,06,04,4.10
2017,03,26,06,05,4.10
2017,03,26,06,06,4.10
2017,03,26,06,07,4.10
2017,03,26,06,08,4.10
2017,03,26,06,09,4.10
2017,03,26,06,10,4.10
2017,03,26,06,11,4.10
2017,03,26,06,12,4.10
2017,03,26,06,13,4.10
2017,03,26,06,14,4.10
2017,03,26,06,15,4.10
2017,03,26,06,16,4.10
2017,03,26,06,17,4.10
2017,03,26,06,18,4.10
2017,03,26,06,19,4.10
2017,03,26,06,20,4.10
2017,03,26,06,21,4.10
2017,03,26,06,22,4.10
2017,03,26,06,23,4.10
2017,03,26,06,24,4.10
2017,03,26,06,25,4.10
2017,03,26,06,26,4.20
2017,03,26,06,27,4.20
2017,03,26,06,28,4.20
2017,03,26,06,29,4.20
2017,03,26,06,30,4.20
2017,03,26,06,31,4.20
2017,03,26,06,32,4.20
2017,03,26,06,33,4.20
2017,03,26,06,34,4.20
2017,03,26,06,35,4.20
2017,03,26,06,36,4.30
2017,03,26,06,37,4.30
2017,03,26,06,38,4.30
2017,03,26,06,39,4.30
2017,03,26,06,40,4.30
2017,03,26,06,41,4.30
2017,03,26,06,42,4.30
2017,03,26,06,43,4.30
2017,03,26,06,44,4.30
2017,03,26,06,45,4.30
2017,03,26,06,46,4.30
2017,03,26,06,47,4.30
2017,03,26,06,48,4.30
2017,03,26,06,49,4.30
2017,03,26,06,50,4.30
2017,03,26,06,51,4.30
2017,03,26,06,52,4.30
2017,03,26,06,53,4.30
2017,03,26,06,54,4.30
2017,03,26,06,55,4.30
2017,03,26,06,56,4.30
2017,03,26,06,57,4.30
2017,03,26,06,58,4.30
2017,03,26,06,59,4.30
2017,03,26,07,00,4.30
2017,03,26,07,01,4.30
2017,03,26,07,02,4.30
2017,03,26,07,03,4.30
2017,03,26,07,04,4.30
2017,03,26,07,05,4.30
2017,03,26,07,06,4.30
2017,03,26,07,07,4.30
2017,03,26,07,08,4.30
2017,03,26,07,09,4.30
2017,03,26,07,10,4.30
2017,03,26,07,11,4.20
2017,03,26,07,12,4.20
2017,03,26,07,13,4.20
2017,03,26,07,14,4.20
2017,03,26,07,15,4.20
2017,03,26,07,16,4.20
2017,03,26,07,17,4.20
2017,03,26,07,18,4.20
2017,03,26,07,19,4.20
2017,03,26,07,20,4.20
2017,03,26,07,21,4.20
2017,03,26,07,22,4.20
2017,03,26,07,23,4.20
2017,03,26,07,24,4.20
2017,03,26,07,25,4.20
2017,03,26,07,26,4.20
2017,03,26,07,27,4.20
2017,03,26,07,28,4.20
2017,03,26,07,29,4.20
2017,03,26,07,30,4.20
2017,03,26,07,31,4.20
2017,03,26,07,32,4.10
2017,03,26,07,33,4.20
2017,03,26,07,34,4.20
2017,03,26,07,35,4.20
2017,03,26,07,36,4.20
2017,03,26,07,37,4.20
2017,03,26,07,38,4.20
2017,03,26,07,39,4.20
2017,03,26,07,40,4.10
2017,03,26,07,41,4.10
2017,03,26,07,42,4.10
2017,03,26,07,43,4.10
2017,03,26,07,44,4.10
2017,03,26,07,45,4.10
2017,03,26,07,46,4.10
2017,03,26,07,47,4.10
2017,03,26,07,48,4.10
2017,03,26,07,49,4.10
2017,03,26,07,50,4.10
2017,03,26,07,51,4.10
2017,03,26,07,52,4.10
2017,03,26,07,53,4.10
2017,03,26,07,54,4.10
2017,03,26,07,55,4.10
2017,03,26,07,56,4.10
2017,03,26,07,57,4.10
2017,03,26,07,58,4.10
2017,03,26,07,59,4.10
2017,03,26,08,00,4.10
2017,03,26,08,01,4.10
2017,03,26,08,02,4.10
2017,03,26,08,03,4.10
2017,03,26,08,04,4.10
2017,03,26,08,05,4.10
2017,03,26,08,06,4.10
2017,03,26,08,07,4.10
2017,03,26,08,08,4.10
2017,03,26,08,09,4.10
2017,03,26,08,10,4.10
2017,03,26,08,11,4.10
2017,03,26,08,12,4.00
2017,03,26,08,13,4.10
2017,03,26,08,14,4.00
2017,03,26,08,15,4.00
2017,03,26,08,16,4.00
2017,03,26,08,17,4.00
2017,03,26,08,18,4.00
2017,03,26,08,19,4.00
2017,03,26,08,20,4.00
2017,03,26,08,21,4.00
2017,03,26,08,22,4.00
2017,03,26,08,23,4.00
2017,03,26,08,24,4.00
2017,03,26,08,25,4.00
2017,03,26,08,26,4.00
2017,03,26,08,27,4.00
2017,03,26,08,28,4.10
2017,03,26,08,29,4.10
2017,03,26,08,30,4.10
2017,03,26,08,31,4.10
2017,03,26,08,32,4.10
2017,03,26,08,33,4.10
2017,03,26,08,34,4.10
2017,03,26,08,35,4.10
2017,03,26,08,36,4.10
2017,03,26,08,37,4.10
2017,03,26,08,38,4.10
2017,03,26,08,39,4.10
2017,03,26,08,40,4.10
2017,03,26,08,41,4.10
2017,03,26,08,42,4.10
2017,03,26,08,43,4.10
2017,03,26,08,44,4.10
2017,03,26,08,45,4.10
2017,03,26,08,46,4.10
2017,03,26,08,47,4.20
2017,03,26,08,48,4.20
2017,03,26,08,49,4.20
2017,03,26,08,50,4.20
2017,03,26,08,51,4.20
2017,03,26,08,52,4.20
2017,03,26,08,53,4.20
2017,03,26,08,54,4.20
2017,03,26,08,55,4.20
2017,03,26,08,56,4.20
2017,03,26,08,57,4.20
2017,03,26,08,58,4.20
2017,03,26,08,59,4.30
2017,03,26,09,00,4.30
2017,03,26,09,01,4.30
2017,03,26,09,02,4.30
2017,03,26,09,03,4.30
2017,03,26,09,04,4.30
2017,03,26,09,05,4.30
2017,03,26,09,06,4.30
2017,03,26,09,07,4.30
2017,03,26,09,08,4.30
2017,03,26,09,09,4.30
2017,03,26,09,10,4.40
2017,03,26,09,11,4.40
2017,03,26,09,12,4.40
2017,03,26,09,13,4.40
2017,03,26,09,14,4.40
2017,03,26,09,15,4.40
2017,03,26,09,16,4.40
2017,03,26,09,17,4.40
2017,03,26,09,18,4.40
2017,03,26,09,19,4.40
2017,03,26,09,20,4.50
2017,03,26,09,21,4.50
2017,03,26,09,22,4.50
2017,03,26,09,23,4.50
2017,03,26,09,24,4.50
2017,03,26,09,25,4.50
2017,03,26,09,26,4.50
2017,03,26,09,27,4.50
2017,03,26,09,28,4.50
2017,03,26,09,29,4.50
2017,03,26,09,30,4.50
2017,03,26,09,31,4.50
2017,03,26,09,32,4.60
2017,03,26,09,33,4.60
2017,03,26,09,34,4.60
2017,03,26,09,35,4.60
2017,03,26,09,36,4.60
2017,03,26,09,37,4.60
2017,03,26,09,38,4.60
2017,03,26,09,39,4.60
2017,03,26,09,40,4.60
2017,03,26,09,41,4.60
2017,03,26,09,42,4.60
2017,03,26,09,43,4.70
2017,03,26,09,44,4.70
2017,03,26,09,45,4.70
2017,03,26,09,46,4.70
2017,03,26,09,47,4.70
2017,03,26,09,48,4.70
2017,03,26,09,49,4.70
2017,03,26,09,50,4.70
2017,03,26,09,51,4.80
2017,03,26,09,52,4.80
2017,03,26,09,53,4.80
2017,03,26,09,54,4.80
2017,03,26,09,55,4.80
2017,03,26,09,56,4.80
2017,03,26,09,57,4.80
2017,03,26,09,58,4.80
2017,03,26,09,59,4.80
2017,03,26,10,00,4.80
2017,03,26,10,01,4.80
2017,03,26,10,02,4.80
2017,03,26,10,03,4.90
2017,03,26,10,04,4.90
2017,03,26,10,05,4.90
2017,03,26,10,06,4.90
2017,03,26,10,07,4.90
2017,03,26,10,08,4.90
2017,03,26,10,09,4.90
2017,03,26,10,10,4.90
2017,03,26,10,11,4.90
2017,03,26,10,12,4.90
2017,03,26,19,15,6.40
2017,03,26,19,16,6.50
2017,03,26,19,17,6.50
2017,03,26,19,18,6.50
2017,03,26,19,19,6.50
2017,03,26,19,20,6.50
2017,03,26,19,21,6.50
2017,03,26,19,22,6.50
2017,03,26,19,23,6.50
2017,03,26,19,24,6.50
2017,03,26,19,25,6.50
2017,03,26,19,26,6.50
2017,03,26,19,27,6.50
2017,03,26,19,28,6.50
2017,03,26,19,29,6.50
2017,03,26,19,30,6.50
2017,03,26,19,31,6.50
2017,03,26,19,32,6.40
2017,03,26,19,33,6.40
2017,03,26,19,34,6.40
2017,03,26,19,35,6.40
2017,03,26,19,36,6.40
2017,03,26,19,37,6.40
2017,03,26,19,38,6.40
2017,03,26,19,39,6.40
2017,03,26,19,40,6.40
2017,03,26,19,41,6.40
2017,03,26,19,42,6.40
2017,03,26,19,43,6.40
2017,03,26,19,44,6.40
2017,03,26,19,45,6.40
2017,03,26,19,46,6.40
2017,03,26,19,47,6.40
2017,03,26,19,48,6.40
2017,03,26,19,49,6.40
2017,03,26,19,50,6.40
2017,03,26,19,51,6.40
2017,03,26,19,52,6.40
2017,03,26,19,53,6.30
2017,03,26,19,54,6.30
2017,03,26,19,55,6.30
2017,03,26,19,56,6.30
2017,03,26,19,57,6.30
2017,03,26,19,58,6.30
2017,03,26,19,59,6.30
2017,03,26,20,00,6.30
2017,03,26,20,01,6.30
2017,03,26,20,02,6.30
2017,03,26,20,03,6.30
2017,03,26,20,04,6.30
2017,03,26,20,05,6.30
2017,03,26,20,06,6.30
2017,03,26,20,07,6.30
2017,03,26,20,08,6.30
2017,03,26,20,09,6.30
2017,03,26,20,10,6.30
2017,03,26,20,11,6.30
2017,03,26,20,12,6.30
2017,03,26,20,13,6.30
2017,03,26,20,14,6.30
2017,03,26,20,15,6.30
2017,03,26,20,16,6.30
2017,03,26,20,17,6.30
2017,03,26,20,18,6.30
2017,03,26,20,19,6.30
2017,03,26,20,20,6.30
2017,03,26,20,21,6.30
2017,03,26,20,22,6.30
2017,03,26,20,23,6.30
2017,03,26,20,24,6.30
2017,03,26,20,25,6.30
2017,03,26,20,26,6.30
2017,03,26,20,27,6.30
2017,03,26,20,28,6.30
2017,03,26,20,29,6.30
2017,03,26,20,30,6.30
2017,03,26,20,31,6.30
2017,03,26,20,32,6.30
2017,03,26,20,33,6.30
2017,03,26,20,34,6.20
2017,03,26,20,35,6.30
2017,03,26,20,36,6.30
2017,03,26,20,37,6.30
2017,03,26,20,38,6.30
2017,03,26,20,39,6.30
2017,03,26,20,40,6.30
2017,03,26,20,41,6.30
2017,03,26,20,42,6.30
2017,03,26,20,43,6.20
2017,03,26,20,44,6.20
2017,03,26,20,45,6.20
2017,03,26,20,46,6.20
2017,03,26,20,47,6.20
2017,03,26,20,48,6.20
2017,03,26,20,49,6.20
2017,03,26,20,50,6.20
2017,03,26,20,51,6.20
2017,03,26,20,52,6.20
2017,03,26,20,53,6.20
2017,03,26,20,54,6.20
2017,03,26,20,55,6.20
2017,03,26,20,56,6.20
2017,03,26,20,57,6.20
2017,03,26,20,58,6.20
2017,03,26,20,59,6.20
2017,03,26,21,00,6.20
2017,03,26,21,01,6.20
2017,03,26,21,02,6.20
2017,03,26,21,03,6.20
2017,03,26,21,04,6.20
2017,03,26,21,05,6.20
2017,03,26,21,06,6.20
2017,03,26,21,07,6.20
2017,03,26,21,08,6.20
2017,03,26,21,09,6.20
2017,03,26,21,10,6.20
2017,03,26,21,11,6.20
2017,03,26,21,12,6.10
2017,03,26,21,13,6.10
2017,03,26,21,14,6.10
2017,03,26,21,15,6.10
2017,03,26,21,16,6.10
2017,03,26,21,17,6.10
2017,03,26,21,18,6.10
2017,03,26,21,19,6.10
2017,03,26,21,20,6.10
2017,03,26,21,21,6.10
2017,03,26,21,22,6.10
2017,03,26,21,23,6.10
2017,03,26,21,24,6.10
2017,03,26,21,25,6.10
2017,03,26,21,26,6.10
2017,03,26,21,27,6.10
2017,03,26,21,28,6.10
2017,03,26,21,29,6.10
2017,03,26,21,30,6.10
2017,03,26,21,31,6.10
2017,03,26,21,32,6.10
2017,03,26,21,33,6.10
2017,03,26,21,34,6.10
2017,03,26,21,35,6.10
2017,03,26,21,36,6.10
2017,03,26,21,37,6.10
2017,03,26,21,38,6.10
2017,03,26,21,39,6.10
2017,03,26,21,40,6.10
2017,03,26,21,41,6.10
2017,03,26,21,42,6.10
2017,03,26,21,43,6.10
2017,03,26,21,44,6.10
2017,03,26,21,45,6.10
2017,03,26,21,46,6.10
2017,03,26,21,47,6.10
2017,03,26,21,48,6.10
2017,03,26,21,49,6.10
2017,03,26,21,50,6.10
2017,03,26,21,51,6.10
2017,03,26,21,52,6.10
2017,03,26,21,53,6.10
2017,03,26,21,54,6.10
2017,03,26,21,55,6.10
2017,03,26,21,56,6.10
2017,03,26,21,57,6.10
2017,03,26,21,58,6.10
2017,03,26,21,59,6.10
2017,03,26,22,00,6.10
2017,03,26,22,01,6.10
2017,03,26,22,02,6.10
2017,03,26,22,03,6.10
2017,03,26,22,04,6.10
2017,03,26,22,05,6.10
2017,03,26,22,06,6.10
2017,03,26,22,07,6.10
2017,03,26,22,08,6.10
2017,03,26,22,09,6.10
2017,03,26,22,10,6.10
2017,03,26,22,11,6.10
2017,03,26,22,12,6.10
2017,03,26,22,13,6.10
2017,03,26,22,14,6.10
2017,03,26,22,15,6.10
2017,03,26,22,16,6.10
2017,03,26,22,17,6.10
2017,03,26,22,18,6.10
2017,03,26,22,19,6.10
2017,03,26,22,20,6.10
2017,03,26,22,21,6.10
2017,03,26,22,22,6.10
2017,03,26,22,23,6.10
2017,03,26,22,24,6.10
2017,03,26,22,25,6.10
2017,03,26,22,26,6.10
2017,03,26,22,27,6.00
2017,03,26,22,28,6.00
2017,03,26,22,29,6.00
2017,03,26,22,30,6.00
2017,03,26,22,31,6.00
2017,03,26,22,32,6.00
2017,03,26,22,33,6.00
2017,03,26,22,34,6.00
2017,03,26,22,35,6.00
2017,03,26,22,36,6.00
2017,03,26,22,37,6.00
2017,03,26,22,38,6.00
2017,03,26,22,39,6.00
2017,03,26,22,40,6.00
2017,03,26,22,41,6.00
2017,03,26,22,42,6.00
2017,03,26,22,43,6.00
2017,03,26,22,44,6.00
2017,03,26,22,45,6.00
2017,03,26,22,46,6.00
2017,03,26,22,47,6.00
2017,03,26,22,48,6.00
2017,03,26,22,49,6.00
2017,03,26,22,50,6.00
2017,03,26,22,51,6.00
2017,03,26,22,52,6.00
2017,03,26,22,53,6.00
2017,03,26,22,54,6.00
2017,03,26,22,55,6.00
2017,03,26,22,56,6.00
2017,03,26,22,57,6.00
2017,03,26,22,58,6.00
2017,03,26,22,59,6.00
2017,03,26,23,00,6.00
2017,03,26,23,01,6.00
2017,03,26,23,02,6.00
2017,03,26,23,03,6.10
2017,03,26,23,04,6.10
2017,03,26,23,05,6.10
2017,03,26,23,06,6.10
2017,03,26,23,07,6.10
2017,03,26,23,08,6.10
2017,03,26,23,09,6.10
2017,03,26,23,10,6.10
2017,03,26,23,11,6.10
2017,03,26,23,12,6.10
2017,03,26,23,13,6.10
2017,03,26,23,14,6.10
2017,03,26,23,15,6.10
2017,03,26,23,16,6.10
2017,03,26,23,17,6.10
2017,03,26,23,18,6.10
2017,03,26,23,19,6.10
2017,03,26,23,20,6.10
2017,03,26,23,21,6.10
2017,03,26,23,22,6.10
2017,03,26,23,23,6.10
2017,03,26,23,24,6.10
2017,03,26,23,25,6.10
2017,03,26,23,26,6.10
2017,03,26,23,27,6.10
2017,03,26,23,28,6.00
2017,03,26,23,29,6.00
2017,03,26,23,30,6.00
2017,03,26,23,31,6.10
2017,03,26,23,32,6.00
2017,03,26,23,33,6.00
2017,03,26,23,34,6.00
2017,03,26,23,35,6.00
2017,03,26,23,36,6.00
2017,03,26,23,37,6.00
2017,03,26,23,38,6.00
2017,03,26,23,39,6.00
2017,03,26,23,40,5.90
2017,03,26,23,41,6.00
2017,03,26,23,42,5.90
2017,03,26,23,43,5.90
2017,03,26,23,44,5.90
2017,03,26,23,45,5.90
2017,03,26,23,46,5.90
2017,03,26,23,47,5.90
2017,03,26,23,48,5.90
2017,03,26,23,49,5.90
2017,03,26,23,50,6.00
2017,03,26,23,51,6.00
2017,03,26,23,52,6.00
2017,03,26,23,53,6.00
2017,03,26,23,54,6.00
2017,03,26,23,55,6.00
2017,03,26,23,56,6.10
2017,03,26,23,57,6.10
2017,03,26,23,58,6.10
2017,03,26,23,59,6.10
